FW5913 Weather Reports


time (UTC)temp
F
wind
direction
speed
knots
gust
knots
rain 1hr
in
rain 24hr
in
rain mn
in
humidity
%
barometer
mb
20260507071238 46 301 4.3 7.0 0.03 0.07 0.06 96 1011.8
20260507070236 46 301 4.3 7.0 0.02 0.06 0.06 96 1011.7
20260507065234 46 300 2.6 7.0 0.02 0.06 0.06 96 1011.7
20260507064233 46 271 2.6 4.3 0.02 0.06 0.06 97 1011.6
20260507063232 46 305 2.6 4.3 0.01 0.06 0.05 97 1011.4
20260507062228 46 314 2.6 7.0 0.01 0.05 0.04 97 1011.2
20260507061307 46 301 1.7 2.6 0.00 0.06 0.04 97 1011.1
20260507060225 46 303 3.5 5.2 0.00 0.08 0.04 97 1011.0
20260507055224 46 301 2.6 3.5 0.00 0.09 0.04 97 1010.9
20260507054242 45 293 3.5 5.2 0.00 0.10 0.04 97 1010.8
20260507053220 45 293 3.5 5.2 0.00 0.11 0.04 97 1010.7
20260507052259 45 286 4.3 7.0 0.00 0.11 0.04 97 1010.6
20260507051217 45 318 1.7 2.6 0.00 0.12 0.04 98 1010.5
20260507050215 45 305 2.6 3.5 0.00 0.14 0.04 97 1010.5
20260507045213 45 338 3.5 5.2 0.00 0.15 0.04 98 1010.4
20260507044212 45 298 3.5 5.2 0.00 0.16 0.04 97 1010.4
20260507043211 45 289 1.7 3.5 0.00 0.16 0.04 98 1010.3
20260507042209 45 297 4.3 7.0 0.00 0.17 0.04 98 1010.2
20260507040206 45 313 4.3 7.8 0.00 0.18 0.04 98 1010.1
20260507035205 45 321 1.7 3.5 0.00 0.18 0.04 98 1010.0
20260507034204 45 294 3.5 7.0 0.00 0.18 0.04 97 1010.0
20260507033243 45 296 3.5 5.2 0.00 0.18 0.04 98 1010.1
20260507032202 45 274 1.7 3.5 0.00 0.18 0.04 98 1010.1
20260507031301 45 318 3.5 5.2 0.00 0.18 0.04 97 1010.1
20260507030259 45 293 4.3 6.1 0.00 0.18 0.04 97 1009.9
20260507025257 45 299 3.5 7.8 0.00 0.18 0.04 97 1009.8
20260507024255 45 318 1.7 2.6 0.00 0.18 0.04 97 1009.9
20260507023254 46 316 2.6 4.3 0.00 0.18 0.04 97 1009.9
20260507022252 46 308 3.5 5.2 0.00 0.19 0.04 97 1010.0
20260507021311 46 305 3.5 5.2 0.00 0.19 0.04 97 1009.9
20260507020330 46 325 3.5 3.5 0.00 0.19 0.04 97 1009.8
20260507015248 46 292 3.5 4.3 0.00 0.19 0.04 96 1009.7
20260507014246 46 251 1.7 3.5 0.00 0.20 0.04 96 1009.7
20260507013244 46 325 1.7 5.2 0.00 0.23 0.04 96 1009.7
20260507012242 46 336 0.9 2.6 0.00 0.26 0.04 97 1009.7
20260507011401 46 326 2.6 3.5 0.00 0.28 0.04 96 1009.6
20260507010239 46 334 3.5 5.2 0.00 0.31 0.04 97 1009.6
20260507005237 46 329 1.7 3.5 0.01 0.33 0.04 97 1009.5
20260507004256 46 292 2.6 4.3 0.03 0.35 0.04 97 1009.5
20260507003233 46 339 3.5 4.3 0.03 0.37 0.04 96 1009.5
20260507002228 46 289 2.6 5.2 0.03 0.40 0.04 97 1009.5
20260507001223 47 322 2.6 5.2 0.03 0.43 0.04 97 1009.6
20260507000222 47 291 1.7 2.6 0.03 0.45 0.03 97 1009.7
20260506235220 47 344 1.7 2.6 0.02 0.47 0.02 97 1009.6
20260506234218 47 333 2.6 4.3 0.01 0.48 0.01 97 1009.5
20260506233217 47 275 3.5 7.0 0.00 0.50 0.00 97 1009.4
20260506232213 47 322 3.5 6.1 0.00 0.50 0.00 97 1009.4
20260506231211 47 319 1.7 3.5 0.00 0.51 0.00 97 1009.3
20260506230210 47 327 1.7 2.6 0.00 0.53 0.00 97 1009.2
20260506225208 47 285 1.7 3.5 0.00 0.54 0.00 98 1009.2
20260506224207 47 291 1.7 3.5 0.00 0.55 0.00 98 1009.1
20260506223206 47 329 2.6 3.5 0.00 0.57 0.00 98 1009.0
20260506222205 47 285 3.5 4.3 0.00 0.58 0.00 98 1009.0
20260506221203 47 323 3.5 4.3 0.00 0.59 0.00 97 1008.9
20260506220202 47 341 2.6 4.3 0.00 0.61 0.00 97 1009.0
20260506215411 48 328 1.7 2.6 0.00 0.62 0.61 97 1009.0
20260506214429 48 327 2.6 3.5 0.00 0.64 0.61 97 1009.0
20260506213407 48 333 2.6 3.5 0.00 0.66 0.61 97 1009.0
20260506212406 48 292 3.5 6.1 0.00 0.68 0.61 97 1009.0
20260506211405 48 288 3.5 4.3 0.00 0.71 0.61 97 1008.9
20260506210404 48 285 1.7 3.5 0.00 0.74 0.61 97 1008.9
20260506205403 48 330 2.6 5.2 0.00 0.77 0.61 97 1008.8
20260506204402 48 327 2.6 4.3 0.00 0.79 0.61 97 1008.8
20260506203520 48 322 1.7 3.5 0.00 0.81 0.61 97 1008.7
20260506202459 48 322 3.5 5.2 0.00 0.83 0.61 97 1008.7
20260506201457 49 336 2.6 4.3 0.00 0.85 0.61 97 1008.6
20260506200456 49 312 1.7 4.3 0.00 0.87 0.61 97 1008.4
20260506195514 49 332 1.7 3.5 0.00 0.89 0.61 97 1008.4
20260506194453 49 320 2.6 4.3 0.00 0.91 0.61 97 1008.5
20260506193510 49 308 1.7 2.6 0.00 0.93 0.61 96 1008.3
20260506192448 49 337 2.6 5.2 0.00 0.95 0.61 96 1008.2
20260506191447 49 332 3.5 6.1 0.00 0.97 0.61 95 1008.1
20260506190445 50 339 3.5 6.1 0.00 0.97 0.60 95 1007.9
20260506185443 50 357 2.6 5.2 0.00 0.97 0.60 94 1007.8
20260506184441 50 348 3.5 5.2 0.00 0.98 0.60 94 1007.7
20260506183437 50 320 3.5 7.0 0.00 0.98 0.60 94 1007.5
20260506182435 51 290 2.6 5.2 0.00 0.98 0.60 93 1007.3
20260506181434 51 308 1.7 3.5 0.00 0.98 0.60 93 1007.1
20260506180433 51 304 2.6 5.2 0.00 0.98 0.60 93 1007.2
20260506175431 51 307 3.5 5.2 0.00 0.99 0.60 93 1007.1
20260506174429 51 297 3.5 5.2 0.00 0.99 0.60 93 1007.1
20260506173427 51 318 1.7 3.5 0.00 0.99 0.60 93 1007.0
20260506172423 51 332 2.6 5.2 0.00 0.99 0.60 93 1007.0
20260506171441 51 295 3.5 5.2 0.00 0.99 0.60 93 1007.0
20260506170420 52 326 3.5 3.5 0.00 0.99 0.60 92 1006.9
20260506165417 52 291 3.5 7.0 0.00 0.99 0.60 92 1006.8
20260506164415 53 295 3.5 5.2 0.00 0.99 0.60 91 1006.8
20260506163434 53 308 3.5 5.2 0.00 0.99 0.60 90 1006.7
20260506162412 53 307 3.5 5.2 0.00 0.99 0.60 90 1006.6
20260506161410 54 308 2.6 6.1 0.00 0.99 0.60 90 1006.6
20260506160429 54 292 3.5 6.1 0.00 0.99 0.60 89 1006.6
20260506155427 55 306 3.5 4.3 0.00 0.99 0.60 89 1006.7
20260506154407 55 301 3.5 4.3 0.00 0.99 0.60 87 1006.6
20260506153406 55 316 2.6 5.2 0.00 1.01 0.60 86 1006.6
20260506152404 56 316 2.6 5.2 0.00 1.03 0.60 86 1006.6
20260506151402 55 300 2.6 3.5 0.00 1.06 0.60 87 1006.6
20260506150401 55 323 3.5 4.3 0.00 1.06 0.60 87 1006.7
20260506145520 56 320 1.7 3.5 0.00 1.06 0.60 87 1006.6
20260506144459 55 331 2.6 5.2 0.00 1.06 0.60 89 1006.6
20260506143457 56 307 2.6 3.5 0.00 1.06 0.60 86 1006.5
20260506142455 57 301 2.6 5.2 0.00 1.06 0.60 85 1006.5
20260506141453 58 7 2.6 3.5 0.00 1.06 0.60 84 1006.6
20260506140451 57 327 2.6 3.5 0.00 1.06 0.60 85 1006.5
20260506135450 57 304 3.5 4.3 0.00 1.06 0.60 85 1006.6
20260506134449 56 313 2.6 4.3 0.00 1.06 0.60 86 1006.6
20260506133447 56 306 3.5 6.1 0.00 1.06 0.60 87 1006.6
20260506132446 57 328 2.6 3.5 0.00 1.13 0.60 85 1006.7
20260506131443 57 292 2.6 3.5 0.00 1.19 0.60 84 1006.6
20260506130442 58 313 3.5 7.0 0.00 1.21 0.60 85 1006.6
20260506125441 58 303 1.7 5.2 0.00 1.23 0.60 84 1006.5
20260506124439 59 352 5.2 9.6 0.00 1.23 0.60 84 1006.4
20260506123436 58 13 4.3 5.2 0.00 1.23 0.60 85 1006.4
20260506122434 58 328 3.5 7.0 0.00 1.23 0.60 85 1006.4
20260506121433 60 330 5.2 7.8 0.00 1.23 0.60 79 1006.5
20260506120430 59 112 2.6 4.3 0.00 1.25 0.60 78 1006.5
20260506115448 59 103 2.6 5.2 0.00 1.26 0.60 79 1006.4
20260506114425 59 157 0.9 3.5 0.00 1.26 0.60 80 1006.4
20260506113423 58 95 4.3 7.0 0.00 1.26 0.60 79 1006.4
20260506112421 58 111 5.2 7.8 0.00 1.26 0.60 80 1006.4
20260506111418 58 136 3.5 7.8 0.00 1.26 0.60 79 1006.4
20260506110415 57 175 2.6 4.3 0.00 1.26 0.60 82 1006.4
20260506105434 58 91 6.1 7.8 0.00 1.26 0.60 83 1006.4
20260506104412 58 118 3.5 4.3 0.00 1.26 0.60 83 1006.4
20260506103430 58 110 4.3 7.8 0.00 1.26 0.60 84 1006.4
20260506102408 57 147 6.1 8.7 0.00 1.26 0.60 87 1006.3
20260506101407 56 109 5.2 6.1 0.00 1.26 0.60 87 1006.4
20260506100446 56 113 6.1 8.7 0.00 1.26 0.60 88 1006.3
20260506095405 57 134 3.5 9.6 0.00 1.26 0.60 88 1006.2
20260506094403 57 124 4.3 9.6 0.00 1.26 0.60 88 1006.1
20260506093402 57 118 5.2 8.7 0.00 1.26 0.60 88 1006.1
20260506092401 56 110 5.2 7.0 0.00 1.26 0.60 88 1006.0
20260506091359 57 109 3.5 5.2 0.00 1.26 0.60 85 1006.1
20260506090357 58 123 0.9 1.7 0.00 1.26 0.60 84 1006.0
20260506085355 56 129 5.2 7.8 0.00 1.26 0.60 85 1005.9
20260506084354 56 132 3.5 7.0 0.00 1.26 0.60 86 1005.9
20260506083352 56 110 4.3 6.1 0.00 1.26 0.60 87 1005.8
20260506082351 56 113 1.7 3.5 0.00 1.26 0.60 88 1005.8
20260506081349 56 113 5.2 5.2 0.00 1.26 0.60 88 1005.8
20260506080347 57 110 2.6 6.1 0.00 1.26 0.60 86 1005.7
20260506073342 55 92 3.5 5.2 0.00 1.26 0.60 91 1005.6
20260506072341 54 117 3.5 3.5 0.00 1.26 0.60 93 1005.7